[[{"header":{"parameterUnit":"m.s-1","parameterCategory":1,"la1":30.2992,"la2":30.254,"lo1":-89.0895,"lo2":-89.0443,"dy":0.0025,"dx":0.0025,"nx":19,"ny":19,"refTime":"2026-05-03T09:00:00:Z","depth":0,"parameterNumber":2,"parameterNumberName":"U-component_of_WINDS"},"data":[0,0,0,-0.6304,-0.6303,-0.6239,-0.6238,-0.6175,-0.6174,0,0,0,0,0,0,0,0,0,0,0,-0.6333,-0.6333,-0.6304,-0.6302,-0.6239,-0.6238,-0.6175,-0.6174,0,0,0,0,0,0,0,0,0,0,0,-0.6333,-0.6333,-0.6333,-0.6302,-0.6239,-0.6238,-0.6175,-0.6217,0,0,0,0,0,0,0,0,0,0,-0.6275,-0.6313,-0.6333,-0.6333,-0.6302,-0.6239,-0.6238,-0.6218,-0.6214,-0.6211,0,-0.6211,0,-0.6192,-0.6171,-0.6171,0,0,0,-0.6294,-0.6316,-0.629,-0.6333,-0.6301,-0.6239,-0.6265,-0.6216,-0.6211,-0.6205,-0.621,-0.6207,-0.6191,-0.6171,-0.617,-0.618,-0.618,0,0,-0.6298,-0.6327,-0.6293,-0.6287,-0.6298,-0.6267,-0.6263,-0.6212,-0.6219,-0.6209,-0.6205,-0.619,-0.617,-0.617,-0.6179,-0.618,0,0,0,-0.6313,-0.633,-0.6304,-0.629,-0.6278,-0.6266,-0.6261,-0.6222,-0.6211,-0.6204,-0.6189,-0.617,-0.6169,-0.6179,-0.618,-0.623,0,0,0,-0.6315,-0.6339,-0.6306,-0.6323,-0.6279,-0.6249,-0.6272,-0.6214,-0.6208,-0.6189,-0.617,-0.6169,-0.6178,-0.6179,-0.6227,-0.6249,0,0,0,-0.6334,-0.6341,-0.6335,-0.6325,-0.6299,-0.6249,-0.6235,-0.6212,-0.6199,-0.6171,-0.6169,-0.6178,-0.6179,-0.6225,-0.6245,-0.6262,0,0,0,-0.6362,-0.638,-0.6337,-0.6351,-0.63,-0.628,-0.6235,-0.6218,-0.6201,-0.617,-0.6178,-0.6179,-0.6224,-0.6243,-0.6259,-0.6282,-0.6293,0,0,-0.6401,-0.6386,-0.6392,-0.6351,-0.6347,-0.6287,-0.629,-0.6246,-0.6216,-0.6194,-0.6193,-0.6228,-0.6245,-0.6261,-0.6345,-0.6354,0,0,0,-0.6414,-0.642,-0.6412,-0.6397,-0.6363,-0.6337,-0.6289,-0.6272,-0.6252,-0.621,-0.6236,-0.6245,-0.6254,-0.6263,-0.6271,-0.6277,-0.6184,-0.6184,-0.6184,-0.6514,-0.6475,-0.6483,-0.6437,-0.6422,-0.6373,-0.6358,-0.6327,-0.6292,-0.6299,-0.6292,-0.6348,-0.636,-0.6366,-0.6372,-0.6299,-0.6299,-0.63,-0.63,-0.657,-0.6572,-0.6524,-0.6516,-0.6475,-0.6466,-0.6419,-0.6395,-0.6382,-0.6349,-0.6354,-0.6324,-0.6377,-0.6381,-0.6303,-0.6302,-0.6302,-0.6302,-0.6301,-0.6632,-0.6627,-0.6606,-0.658,-0.6565,-0.6516,-0.6507,-0.6469,-0.6433,-0.6438,-0.6429,-0.6428,-0.6424,-0.6436,-0.6436,-0.6436,-0.6436,-0.6436,-0.6437,-0.6706,-0.6681,-0.6678,-0.6644,-0.663,-0.6606,-0.6556,-0.6541,-0.6514,-0.6488,-0.6487,-0.6453,-0.6389,-0.6375,-0.6439,-0.6439,-0.6439,-0.6438,-0.6438,-0.6781,-0.6758,-0.6753,-0.6739,-0.6696,-0.6684,-0.6635,-0.6608,-0.6589,-0.6586,-0.6549,-0.6508,-0.6489,-0.6483,-0.6471,-0.6557,-0.6557,-0.6557,-0.6557,-0.6836,-0.6822,-0.6809,-0.6789,-0.6764,-0.672,-0.6716,-0.6678,-0.6634,-0.6621,-0.6602,-0.6583,-0.6578,-0.6562,-0.6554,-0.6543,-0.6644,-0.6645,-0.6645,-0.688,-0.6863,-0.6867,-0.6825,-0.6789,-0.6759,-0.6755,-0.6734,-0.668,-0.6647,-0.661,-0.6606,-0.6574,-0.6565,-0.6535,-0.6523,-0.6501,0,0]},{"header":{"parameterUnit":"m.s-1","parameterCategory":1,"la1":30.2992,"la2":30.254,"lo1":-89.0895,"lo2":-89.0443,"dy":0.0025,"dx":0.0025,"nx":19,"ny":19,"refTime":"2026-05-03T09:00:00:Z","depth":0,"parameterNumber":3,"parameterNumberName":"V-component_of_WINDS"},"data":[0,0,0,-2.3272,-2.3272,-2.3271,-2.3271,-2.3273,-2.3273,0,0,0,0,0,0,0,0,0,0,0,-2.3275,-2.3275,-2.3272,-2.3272,-2.3271,-2.3271,-2.3273,-2.3273,0,0,0,0,0,0,0,0,0,0,0,-2.3274,-2.3275,-2.3275,-2.3272,-2.3271,-2.3271,-2.3273,-2.3272,0,0,0,0,0,0,0,0,0,0,-2.3273,-2.3278,-2.3275,-2.3275,-2.3272,-2.3271,-2.3271,-2.3272,-2.3273,-2.3275,0,-2.3279,0,-2.3276,-2.3274,-2.3274,0,0,0,-2.327,-2.3278,-2.3275,-2.3275,-2.3272,-2.3271,-2.3271,-2.3272,-2.3273,-2.3276,-2.3279,-2.3279,-2.3276,-2.3274,-2.3274,-2.33,-2.33,0,0,-2.327,-2.3275,-2.3275,-2.3276,-2.3277,-2.3271,-2.3271,-2.3272,-2.3276,-2.3279,-2.3279,-2.3276,-2.3274,-2.3274,-2.33,-2.33,0,0,0,-2.3271,-2.3275,-2.3273,-2.3276,-2.3275,-2.3271,-2.3271,-2.3276,-2.3275,-2.3279,-2.3276,-2.3274,-2.3274,-2.33,-2.33,-2.3319,0,0,0,-2.3271,-2.3276,-2.3273,-2.3277,-2.3275,-2.3276,-2.3274,-2.3275,-2.3275,-2.3276,-2.3274,-2.3274,-2.3299,-2.33,-2.3318,-2.3326,0,0,0,-2.3274,-2.3277,-2.3277,-2.3277,-2.3277,-2.3275,-2.3274,-2.3275,-2.3273,-2.3274,-2.3274,-2.3299,-2.33,-2.3317,-2.3325,-2.3337,0,0,0,-2.3277,-2.3292,-2.3278,-2.3293,-2.3277,-2.3287,-2.3274,-2.3281,-2.3283,-2.3274,-2.3299,-2.33,-2.3316,-2.3324,-2.3336,-2.335,-2.3355,0,0,-2.3298,-2.3294,-2.3303,-2.329,-2.3305,-2.3287,-2.3303,-2.3299,-2.3293,-2.3298,-2.3299,-2.3318,-2.3325,-2.3337,-2.3383,-2.3388,0,0,0,-2.3311,-2.3318,-2.332,-2.3324,-2.3322,-2.3323,-2.3315,-2.3314,-2.3319,-2.3297,-2.3324,-2.3328,-2.3335,-2.3342,-2.3346,-2.3352,-2.3303,-2.3303,-2.3303,-2.3348,-2.3342,-2.3357,-2.3351,-2.3355,-2.3349,-2.3352,-2.3349,-2.3339,-2.3346,-2.3348,-2.3377,-2.3385,-2.3388,-2.3395,-2.3353,-2.3353,-2.3353,-2.3353,-2.338,-2.3389,-2.3379,-2.339,-2.3383,-2.3392,-2.3387,-2.3381,-2.3388,-2.3374,-2.338,-2.3367,-2.3393,-2.3399,-2.3355,-2.3355,-2.3354,-2.3354,-2.3354,-2.3405,-2.3409,-2.3408,-2.3415,-2.3421,-2.3414,-2.3423,-2.3416,-2.3409,-2.3414,-2.3417,-2.3417,-2.3417,-2.3416,-2.3416,-2.3416,-2.3416,-2.3416,-2.3416,-2.3431,-2.3431,-2.344,-2.3442,-2.3445,-2.3448,-2.3444,-2.3447,-2.3448,-2.3442,-2.3442,-2.3433,-2.3396,-2.3388,-2.3418,-2.3418,-2.3418,-2.3417,-2.3417,-2.3468,-2.346,-2.3473,-2.3477,-2.348,-2.3488,-2.348,-2.3486,-2.3487,-2.3492,-2.3483,-2.3456,-2.3451,-2.3447,-2.3441,-2.3483,-2.3483,-2.3483,-2.3483,-2.349,-2.3488,-2.3502,-2.3509,-2.3514,-2.3509,-2.3526,-2.3524,-2.352,-2.3521,-2.3514,-2.3504,-2.3501,-2.3498,-2.3493,-2.3487,-2.354,-2.354,-2.354,-2.3514,-2.3512,-2.3528,-2.3526,-2.3529,-2.3532,-2.3549,-2.3557,-2.355,-2.3542,-2.3522,-2.352,-2.3504,-2.3498,-2.349,-2.3483,-2.3472,0,0]}]]